Location: Passo di Treia
(43.2833°N, 13.3333°E)
Time: 17:16:04
(UTC+00:00)

Meteor 1-27 Rocket - Pass Details

Date: 09 December 2019
Orbit: 830 x 909 km, 81.3° (Epoch: 27 January)

Event Time Altitude Azimuth Distance (km) Brightness Sun altitude
Rises 16:16:10 0° 177° (S) 3,423 7.1 -8.1°
Reaches altitude 10° 16:18:35 10° 173° (S) 2,503 6.4 -8.5°
Maximum altitude 16:24:10 59° 95° (E) 1,008 3.9 -9.5°
Drops below altitude 10° 16:29:55 10° 17° (NNE) 2,572 5.9 -10.4°
Sets 16:32:25 0° 14° (NNE) 3,526 6.6 -10.9°
